YM2KV-13 Weather Reports


time (UTC)temp
C
wind
direction
speed
KPH
gust
KPH
rain 1hr
cm
rain 24hr
cm
rain mn
cm
humidity
%
barometer
mb
20260504081945 8 0.0 0.0 0.00 0.00 0.00 84 1020.5
20260504080945 8 0.0 0.0 0.00 0.00 0.00 84 1020.4
20260504045945 7 0.0 0.0 0.00 0.00 0.00 89 1019.3
20260504044945 7 0.0 0.0 0.00 0.00 0.00 90 1019.2
20260504043945 8 0.0 0.0 0.00 0.00 0.00 92 1019.2
20260504042945 8 0.0 0.0 0.00 0.00 0.00 90 1019.1
20260504041945 8 0.0 0.0 0.00 0.00 0.00 91 1019.1
20260504040945 8 0.0 0.0 0.00 0.00 0.00 92 1019.0
20260504035945 8 0.0 0.0 0.00 0.00 0.00 91 1019.0
20260504034945 8 0.0 0.0 0.00 0.00 0.00 91 1019.0
20260504033945 8 0.0 0.0 0.00 0.00 0.00 91 1019.0
20260504032945 8 0.0 0.0 0.00 0.00 0.00 91 1018.8
20260504031945 8 0.0 0.0 0.00 0.00 0.00 90 1018.7
20260504030945 8 0.0 0.0 0.00 0.00 0.00 92 1018.6
20260504025945 8 0.0 0.0 0.00 0.00 0.00 93 1018.5
20260504024945 8 0.0 0.0 0.00 0.00 0.00 92 1018.5
20260504023945 8 0.0 0.0 0.00 0.00 0.00 92 1018.5
20260504022945 8 0.0 0.0 0.00 0.00 0.00 93 1018.3
20260504021945 8 0.0 0.0 0.00 0.00 0.00 92 1018.3
20260504020945 8 0.0 0.0 0.00 0.00 0.00 93 1018.4
20260504015945 8 0.0 0.0 0.00 0.00 0.00 93 1018.3
20260504014945 8 0.0 0.0 0.00 0.00 0.00 93 1018.3
20260504013945 8 0.0 0.0 0.00 0.00 0.00 92 1018.5
20260504012945 8 0.0 0.0 0.00 0.00 0.00 92 1018.5
20260504011945 8 0.0 0.0 0.00 0.00 0.00 93 1018.5
20260504010945 8 0.0 0.0 0.00 0.00 0.00 92 1018.6
20260504005945 8 0.0 0.0 0.00 0.00 0.00 93 1018.6
20260504004945 8 0.0 0.0 0.00 0.00 0.00 93 1018.6
20260504003945 8 0.0 0.0 0.00 0.00 0.00 92 1018.6
20260504002945 8 0.0 0.0 0.00 0.00 0.00 92 1018.6
20260504001945 8 0.0 0.0 0.00 0.00 0.00 92 1018.7
20260504000945 8 0.0 0.0 0.00 0.00 0.00 92 1018.7
20260503235945 8 0.0 0.0 0.00 0.00 0.00 92 1018.8
20260503234945 8 0.0 0.0 0.00 0.00 0.00 91 1018.8
20260503233945 8 0.0 0.0 0.00 0.00 0.00 91 1019.0
20260503232945 8 0.0 0.0 0.00 0.00 0.00 92 1018.9
20260503231945 8 0.0 0.0 0.00 0.00 0.00 92 1019.0
20260503230945 8 0.0 0.0 0.00 0.00 0.00 91 1019.0
20260503225945 8 0.0 0.0 0.00 0.00 0.00 90 1019.1
20260503224945 8 0.0 0.0 0.00 0.00 0.00 89 1019.1
20260503223945 8 0.0 0.0 0.00 0.00 0.00 89 1019.1
20260503222945 8 0.0 0.0 0.00 0.00 0.00 88 1019.3
20260503221945 8 0.0 0.0 0.00 0.00 0.00 87 1019.4
20260503220945 8 0.0 0.0 0.00 0.00 0.00 87 1019.5
20260503215945 8 0.0 0.0 0.00 0.00 0.00 87 1019.5
20260503214945 8 0.0 0.0 0.00 0.00 0.00 88 1019.7
20260503213944 8 0.0 0.0 0.00 0.00 0.00 89 1019.6
20260503212944 8 0.0 0.0 0.00 0.00 0.00 88 1019.8
20260503211944 8 0.0 0.0 0.00 0.00 0.00 88 1019.9
20260503210944 8 0.0 0.0 0.00 0.00 0.00 87 1019.8
20260503205944 8 0.0 0.0 0.00 0.00 0.00 87 1019.8
20260503204944 8 0.0 0.0 0.00 0.00 0.00 87 1019.9
20260503203944 8 0.0 0.0 0.00 0.00 0.00 87 1020.0
20260503202944 9 0.0 0.0 0.00 0.00 0.00 87 1020.0
20260503201944 9 0.0 0.0 0.00 0.00 0.00 86 1020.1
20260503200944 9 0.0 0.0 0.00 0.00 0.00 86 1020.1
20260503195944 9 0.0 0.0 0.00 0.00 0.00 86 1020.1
20260503194944 9 0.0 0.0 0.00 0.00 0.00 86 1020.2
20260503193944 9 0.0 0.0 0.00 0.00 0.00 85 1020.4
20260503192944 9 0.0 0.0 0.00 0.00 0.00 83 1020.6
20260503191944 9 0.0 0.0 0.00 0.00 0.00 83 1020.6
20260503190944 9 0.0 0.0 0.00 0.00 0.00 83 1020.5
20260503185944 9 0.0 0.0 0.00 0.00 0.00 81 1020.7
20260503184944 10 0.0 0.0 0.00 0.00 0.00 81 1020.7
20260503183944 10 0.0 0.0 0.00 0.00 0.00 79 1020.8
20260503182944 10 0.0 0.0 0.00 0.00 0.00 79 1020.9
20260503181944 10 0.0 0.0 0.00 0.00 0.00 78 1020.9
20260503180944 10 0.0 0.0 0.00 0.00 0.00 77 1020.9
20260503175944 10 0.0 0.0 0.00 0.00 0.00 78 1020.9
20260503174944 10 0.0 0.0 0.00 0.00 0.00 77 1020.8
20260503173944 10 0.0 0.0 0.00 0.00 0.00 77 1020.7
20260503172944 10 0.0 0.0 0.00 0.00 0.00 77 1020.8
20260503171944 10 0.0 0.0 0.00 0.00 0.00 77 1020.9
20260503170944 10 0.0 0.0 0.00 0.00 0.00 77 1020.9
20260503150944 10 0.0 0.0 0.00 0.00 0.00 78 1021.6
20260503130944 12 0.0 0.0 0.00 0.00 0.00 68 1021.9